Cloud_Cover
48 62 61 74 85 18 86 10 78 30 5 5 5 0 0 0 0 0 0 0 0 0 0 0 0 0 1 8 5 7 3 0 0 8 29 7 3 35 0 0 1 0 6
100 84 88 100 99 100 100 100 63 9 7 5 0 0 0 0 0 0 0 0 0 0 4 0 0 42 80 100 99 84 34 45 94 99 97 94 91 6 4 0 0 0 0
100 100 100 100 100 54 11 6 5 5 4 0 0 0 0 0 0 0 0 0 0 0 16 9 8 100 100 100 100 100 82 82 100 100 100 100 63 14 4 16 8 2 4
39 60 30 13 19 5 5 4 1 0 0 0 0 0 0 0 0 0 0 0 0 2 16 0 0 0 94 100 96 99 100 100 100 67 33 1 23 35 66 43 18 1 0
38 5 4 4 0 0 0 0 0 0 0 0 0 0 0 0 0 0 0 0 0 0 2 0 0 5 77 100 100 100 100 76 100 94 76 65 16 93 98 21 0 0 0
5 5 4 0 0 0 0 0 0 0 0 0 0 0 0 0 0 0 0 0 0 0 4 76 100 44 100 100 100 100 100 100 96 71 62 80 4 82 13 0 14 67 54
0 0 0 0 0 0 0 0 0 0 0 0 0 0 0 0 0 0 15 88 97 18 100 100 80 72 100 100 100 100 3 100 71 95 76 50 100 100 100 97 100 97 100
0 0 0 0 0 0 0 0 0 0 0 0 0 0 5 0 0 0 59 100 11 69 30 51 22 12 12 0 100 100 0 0 99 66 97 100 100 100 100 100 100 93 100
0 0 0 0 0 0 0 0 0 0 0 0 0 0 0 2 0 0 0 36 30 0 0 0 0 0 0 0 10 5 0 0 40 100 100 100 100 100 100 100 100 99 100
0 0 0 0 0 0 0 0 0 0 0 0 0 0 0 0 0 0 0 0 27 0 0 0 0 0 0 19 45 3 0 0 5 100 100 100 100 100 62 100 100 90 100
0 0 0 0 0 0 0 0 0 0 0 0 0 0 0 0 0 0 0 0 0 0 0 0 0 0 0 99 100 89 0 5 0 72 100 100 100 100 42 20 66 93 100
0 0 0 0 0 0 0 0 0 0 0 0 2 0 0 0 0 0 0 0 0 0 0 0 0 0 0 21 8 0 0 5 5 61 98 100 61 9 7 5 16 10 98
0 0 0 0 0 0 0 0 0 0 0 0 0 5 5 0 0 0 0 0 0 0 0 0 0 0 0 0 0 0 0 5 5 6 19 4 2 0 0 1 27 18 18
0 0 0 0 0 0 0 0 0 0 4 4 0 5 5 5 0 0 0 8 9 0 0 0 0 0 0 0 0 0 0 0 0 3 0 0 0 0 0 0 0 4 97
3 0 0 0 0 1 5 52 7 5 3 0 0 0 0 2 5 0 0 54 100 84 0 0 0 0 0 0 0 0 0 0 0 0 0 0 0 2 0 0 0 3 5
0 0 0 3 5 10 43 7 5 5 0 0 0 0 0 0 0 1 3 2 100 100 100 0 0 0 0 0 0 0 0 0 0 0 0 0 0 0 0 0 0 7 90
0 5 5 13 52 81 9 11 5 5 0 0 0 0 0 0 0 0 0 0 46 100 100 100 48 0 0 0 0 0 0 0 0 0 0 0 0 0 0 0 0 12 33
4 0 5 5 5 5 5 5 5 5 5 1 0 4 5 3 2 0 0 0 0 0 36 100 100 92 0 5 4 4 0 0 0 0 0 0 0 0 0 0 0 1 19
5 5 5 5 5 4 2 3 5 4 5 5 5 5 5 5 9 20 7 0 1 0 2 3 12 5 66 23 1 0 1 0 0 0 0 0 0 0 0 0 4 0 1
5 5 4 5 2 1 0 0 0 0 0 0 0 0 0 0 1 0 1 8 4 1 17 31 30 60 28 48 85 6 0 0 0 0 0 0 0 0 0 0 2 1 1
5 5 65 40 25 68 67 5 1 0 0 0 0 0 0 0 0 0 0 0 0 4 38 39 36 50 23 9 61 100 85 4 0 0 0 0 0 0 0 0 0 3 5
2 3 0 0 0 3 0 0 0 1 1 5 2 0 0 0 0 0 1 0 0 0 59 100 100 100 24 0 0 61 100 100 88 5 5 0 0 0 0 0 0 0 0
5 5 5 5 4 4 1 5 3 2 0 0 4 5 5 1 2 3 4 0 4 2 5 24 40 4 2 5 26 12 2 74 64 100 42 5 5 1 1 0 0 0 0
5 5 5 5 5 2 1 0 4 33 21 5 5 5 4 23 4 2 0 2 0 1 4 34 13 0 0 0 1 2 40 19 2 6 30 100 72 5 5 5 57 61 61
12 5 5 5 6 9 4 4 0 0 0 0 1 10 28 17 5 1 5 5 5 5 0 0 5 4 4 7 5 6 19 1 28 100 72 17 47 19 97 84 90 100 100
5 5 5 58 73 8 1 0 2 5 3 0 0 3 5 5 6 5 5 5 3 5 5 3 5 5 5 5 56 45 7 56 71 100 45 7 100 89 74 60 58 70 98